Regional Weather Roundup
Issued by NWS New Orleans/Baton Rouge, LA

Home | Current Version | Previous Version | Text Only | Print | Product List | Glossary On
Versions: 1 2 3 4 5 6 7 8 9 10 11 12 13 14 15 16 17 18 19 20 21 22 23 24 25 26 27 28 29 30 31 32 33 34 35 36 37 38 39 40 41 42 43 44 45 46 47 48 49 50
689
ASUS44 KLIX 252210
RWRLIX
NEW ORLEANS REGIONAL WEATHER ROUNDUP
NATIONAL WEATHER SERVICE NEW ORLEANS LA
500 PM CDT SAT OCT 25 2014

NOTE: "FAIR" INDICATES FEW OR NO CLOUDS BELOW 12,000 FEET WITH NO
      SIGNIFICANT WEATHER AND/OR OBSTRUCTIONS TO VISIBILITY.
      SKY/WX - SKY CONDITION AND SIGNIFICANT WEATHER.
      TMP - AIR TEMPERATURE.     DP    - DEWPOINT TEMPERATURE.
      RH  - RELATIVE HUMIDITY.   PRES  - PRESSURE.
      HI  - HEAT INDEX.          WCI   - WIND CHILL INDEX.

*  THESE STATIONS ARE NOT NWS OR FAA STATIONS AND ARE NOT UNDER
   NWS QUALITY CONTROL.

LAZ038-040-048-061>063-065>067-069-252300-
SOUTHEAST LOUISIANA

CITY           SKY/WX    TMP DP  RH WIND       PRES   REMARKS
N.O. AUDUBON     N/A     78  58  50 MISG        N/A
N.O. INTL ARPT SUNNY     79  55  43 NW8       30.07F
N.O. LAKEFRONT SUNNY     75  58  55 W8        30.07F
N.O. DOWNTOWN*   N/A     79  52  38 W5        30.07F
SLIDELL        SUNNY     77  59  53 SW6       30.05F
BATON ROUGE    SUNNY     80  53  39 W7        30.08S
BOOTHVILLE     SUNNY     73  56  54 CALM      30.08S
BELLE CHASSE   SUNNY     79  52  38 VRB3      30.06F
BOGALUSA*        N/A     82  55  39 N7        30.07S
NEW ROADS*       N/A     79  52  38 NW3       30.08F
GONZALES*        N/A     80  56  43 CALM      30.07S
HAMMOND*       SUNNY     82  50  32 NW8       30.08S
HOUMA*         NOT AVBL
PORT FOURCHON* CLEAR     75  57  53 CALM      30.11S

$$

MSZ070-080>082-252300-
SOUTHERN MISSISSIPPI

CITY           SKY/WX    TMP DP  RH WIND       PRES   REMARKS
MCCOMB         SUNNY     81  53  37 N8        30.07F
GULFPORT       SUNNY     80  56  43 N8        30.04S
BILOXI         SUNNY     79  57  45 N6        30.05S
PASCAGOULA     SUNNY     78  57  48 NW6       30.04S
STENNIS ARPT*  SUNNY     81  52  36 N7        30.05

$$

COASTAL OBSERVATIONS
LAKE AND NEARSHORE STATIONS

STATION/POSITION TIME  TEMP    WIND        PRES    WAVE
                       AIR SEA DIR/SP/G            HT/PER
                 (UTC) (F)     (DEG/KT/KT) (MB)    (FT/S)
PASCAGOULA       2200   79     330/  6/ 10 1016.7
WAVELAND YACHT   2200   73     230/  7/ 12 1016.8
GRAND ISLE       2200   74 72  110/  2/  4 1018.9
SOUTHWEST PASS   2200   79 80              1018.6
NEW CANAL        2200   76 71  270/  3/  5 1018.5
SHELL BEACH      2200   75 68  310/  5/  7 1017.9

OFFSHORE STATIONS

STATION/POSITION TIME  TEMP    WIND        PRES    WAVE
                       AIR SEA DIR/SP/G            HT/PER
                 (UTC) (F)     (DEG/KT/KT) (MB)    (FT/S)
64 S DAUPHIN ISL 2116   73 79   10/ 16/ 17 1018.0    3/ 5

$$




USA.gov is the U.S. government's official web portal to all federal, state and local government web resources and services.